Regional Weather Roundup
Issued by NWS

Home | Current Version | Previous Version | Text Only | Print | Product List | Glossary Off
Versions: 1 2 3 4 5 6 7 8 9 10 11 12 13 14 15 16 17 18 19 20 21 22 23 24 25 26 27 28 29 30 31 32 33 34 35 36 37 38 39 40 41 42 43 44 45 46 47 48 49 50

000
ASUS43 KFSD 181710
RWRSD

WEATHER ROUNDUP FOR SOUTH DAKOTA
NATIONAL WEATHER SERVICE SIOUX FALLS SD
1200 PM CDT WED OCT 18 2017

NOTE: "FAIR" INDICATES FEW OR NO CLOUDS BELOW 12,000 FEET WITH NO
SIGNIFICANT WEATHER AND/OR OBSTRUCTIONS TO VISIBILITY.


SDZ001>005-009-010-012>017-181800-
NORTHWEST AND NORTH CENTRAL SOUTH DAKOTA

CITY           SKY/WX    TMP DP  RH WIND       PRES   REMARKS
BUFFALO          N/A     53  23  31 W10       30.02R
FAITH            N/A     57  23  26 N13       30.07R
MOBRIDGE       CLOUDY    56  24  29 N15G24    29.98R
$$

SDZ012>016-024>037-041>051-057-063-072>074-181800-
SOUTHWEST AND SOUTH CENTRAL SOUTH DAKOTA

CITY           SKY/WX    TMP DP  RH WIND       PRES   REMARKS
RAPID CTY ARPT SUNNY     58  23  26 N13       30.11S
PIERRE         SUNNY     62  26  25 N22       30.02R
CUSTER         SUNNY     60  21  22 VRB5      30.13R
ELLSWORTH AFB  SUNNY     57  20  23 N9        30.11R
PHILIP         SUNNY     62  27  26 N12       30.09R
PINE RIDGE     SUNNY     62  29  28 NE9       30.11R
SPEARFISH      FAIR      54  25  32 NW7       30.13R
WINNER         FAIR      66  35  31 N23G31    30.02R
$$

SDZ004>011-016>023-039-040-181800-
NORTHEAST SOUTH DAKOTA

CITY           SKY/WX    TMP DP  RH WIND       PRES   REMARKS
ABERDEEN       MOSUNNY   60  21  22 NW23G31   29.96R
WATERTOWN      SUNNY     62  31  31 N23G30    29.92R
BROOKINGS      SUNNY     64  34  32 N16G24    29.92R
SISSETON         N/A     64  32  30 NW26G33   29.89R
$$

SDZ017-020-022-023-036>040-048>070-181800-
SOUTHEAST SOUTH DAKOTA

CITY           SKY/WX    TMP DP  RH WIND       PRES   REMARKS
SIOUX FALLS    PTSUNNY   66  42  41 N20G29    29.91R
HURON          SUNNY     64  36  35 N17G25    29.94R
CHAMBERLAIN    SUNNY     67  32  27 N16G23    30.00R
MITCHELL       SUNNY     67  31  26 N25       29.95R
YANKTON        SUNNY     66  40  38 N22       29.92R
$$

ABBREVIATIONS USED IN REMARKS
   TC - TEMPERATURE IN CELSIUS
  WCI - WIND CHILL INDEX
   HX - HEAT INDEX
  VSB - VISIBILITY





USA.gov is the U.S. government's official web portal to all federal, state and local government web resources and services.